Portsmouth, NH

8:44 PM EST on February 05, 2016 (GMT -0500)
Pease International Tradeport

Weather History for KPSM - October, 2011

Change the Weather History Date:

Wednesday, October 5, 2011

  Actual Average Record
Temperature  
Mean Temperature 54 °F -  
Max Temperature 65 °F 62 °F 82 °F (2001)
Min Temperature 41 °F 42 °F 31 °F (1974)
Degree Days  
Heating Degree Days 10    
Growing Degree Days 4 (Base 50)    
Moisture  
Dew Point 44 °F    
Average Humidity 69    
Maximum Humidity 95    
Minimum Humidity 39    
Precipitation  
Precipitation 0.00 in - - ()
Sea Level Pressure  
Sea Level Pressure 29.98 in    
Wind  
Wind Speed 10 mph (NW)    
Max Wind Speed 23 mph    
Max Gust Speed 31 mph    
Visibility 10 miles    
Events      
Averages and records for this station are not official NWS values.
T = Trace of Precipitation, MM = Missing Value Source: NWS Daily Summary

Daily Weather History Graph

Daily Weather History Graph

Search for Another Location

Airport or City:

Trip Planner

Search our weather history database for the weather conditions in past years. The results will help you decide how hot, cold, wet, or windy it might be!

Date:

Astronomy

Oct. 05, 2011 Rise Set
Actual Time 6:44 AM EDT 6:17 PM EDT
Civil Twilight 6:16 AM EDT 6:46 PM EDT
Nautical Twilight 5:43 AM EDT 7:19 PM EDT
Astronomical Twilight 5:10 AM EDT 7:52 PM EDT
Moon 3:04 PM EDT (10/5) 12:18 AM EDT (10/5)
Length of Visible Light 12h 29m
Length of Day
11h 33m
Waxing Gibbous, 66% of the Moon is Illuminated
Oct 5
Waxing Gibbous
Oct 11
Full
Oct 19
Last Quarter
Oct 26
New
Nov 2
First Quarter

Hourly Weather History & Observations

Time (EDT) Temp. Windchill Dew Point Humidity Pressure Visibility Wind Dir Wind Speed Gust Speed Precip Events Conditions
12:14 AM 55.4 °F - 53.6 °F 94% 29.89 in 10.0 mi NNW 8.1 mph - N/A   Overcast
12:55 AM 55.8 °F - 53.4 °F 92% 29.89 in 10.0 mi North 8.1 mph - N/A   Overcast
1:13 AM 55.4 °F - 53.6 °F 94% 29.89 in 10.0 mi NNW 6.9 mph - N/A   Overcast
1:31 AM 55.4 °F - 53.6 °F 94% 29.88 in 10.0 mi NNW 8.1 mph - N/A   Mostly Cloudy
1:55 AM 54.7 °F - 53.1 °F 94% 29.88 in 10.0 mi NW 6.9 mph - N/A   Overcast
2:55 AM 54.5 °F - 53.1 °F 95% 29.88 in 10.0 mi WNW 6.9 mph - N/A   Overcast
3:55 AM 54.9 °F - 53.1 °F 94% 29.88 in 10.0 mi WNW 5.8 mph - N/A   Mostly Cloudy
4:55 AM 53.8 °F - 51.1 °F 91% 29.88 in 10.0 mi NW 10.4 mph - N/A   Scattered Clouds
5:55 AM 51.8 °F - 49.6 °F 92% 29.89 in 10.0 mi West 4.6 mph - N/A   Mostly Cloudy
6:55 AM 52.5 °F - 48.9 °F 88% 29.91 in 10.0 mi WNW 9.2 mph - N/A   Mostly Cloudy
7:55 AM 53.8 °F - 47.8 °F 80% 29.93 in 10.0 mi WNW 8.1 mph - N/A   Mostly Cloudy
8:55 AM 55.4 °F - 46.8 °F 73% 29.94 in 10.0 mi WNW 6.9 mph - N/A   Mostly Cloudy
9:55 AM 57.0 °F - 45.5 °F 65% 29.94 in 10.0 mi WNW 9.2 mph - N/A   Mostly Cloudy
10:55 AM 60.1 °F - 46.6 °F 61% 29.95 in 10.0 mi NNW 12.7 mph 17.3 mph N/A   Mostly Cloudy
11:55 AM 62.6 °F - 45.9 °F 54% 29.95 in 10.0 mi NW 16.1 mph 24.2 mph N/A   Partly Cloudy
12:55 PM 64.2 °F - 42.3 °F 45% 29.94 in 10.0 mi NW 18.4 mph 27.6 mph N/A   Scattered Clouds
1:55 PM 61.9 °F - 39.4 °F 43% 29.94 in 10.0 mi WNW 18.4 mph 31.1 mph N/A   Mostly Cloudy
2:55 PM 62.4 °F - 42.1 °F 47% 29.95 in 10.0 mi NW 16.1 mph 25.3 mph N/A   Mostly Cloudy
3:55 PM 60.3 °F - 41.2 °F 49% 29.98 in 10.0 mi NNW 17.3 mph 21.9 mph N/A   Mostly Cloudy
4:55 PM 57.2 °F - 38.5 °F 50% 30.02 in 10.0 mi North 10.4 mph - N/A   Mostly Cloudy
5:55 PM 55.6 °F - 33.8 °F 44% 30.06 in 10.0 mi NNW 15.0 mph - N/A   Partly Cloudy
6:55 PM 53.6 °F - 28.8 °F 39% 30.12 in 10.0 mi NNW 23.0 mph 31.1 mph N/A   Partly Cloudy
7:55 PM 50.9 °F - 29.5 °F 44% 30.15 in 10.0 mi NNW 12.7 mph - N/A   Partly Cloudy
8:55 PM 49.3 °F - 27.3 °F 43% 30.17 in 10.0 mi NNW 9.2 mph - N/A   Clear
9:55 PM 46.6 °F - 28.9 °F 50% 30.19 in 10.0 mi West 6.9 mph - N/A   Clear
10:55 PM 45.7 °F 43.4 °F 33.8 °F 63% 30.19 in 10.0 mi West 4.6 mph - N/A   Clear
11:55 PM 41.0 °F 37.1 °F 33.8 °F 76% 30.19 in 10.0 mi West 5.8 mph - N/A   Clear